Temp
-12 -12 -12 -12 -13 -13 -14 -14 -15 -14 -14 -15 -15 -15 -16 -16 -17 -17 -17 -17 -17 -18 -17 -18 -18 -18 -19 -19 -19 -19 -19 -18 -20 -24 -26 -27 -27 -27 -27 -27 -26 -26 -26
-13 -13 -13 -13 -13 -14 -14 -14 -15 -15 -15 -15 -15 -16 -16 -16 -17 -17 -18 -18 -18 -18 -18 -18 -18 -19 -19 -19 -19 -19 -19 -20 -24 -25 -26 -27 -28 -27 -27 -26 -27 -27 -27
-13 -13 -13 -14 -14 -14 -14 -14 -15 -15 -15 -15 -15 -15 -16 -17 -18 -18 -18 -18 -18 -18 -18 -19 -19 -19 -19 -20 -20 -19 -19 -21 -25 -26 -26 -27 -27 -27 -27 -26 -27 -26 -26
-13 -13 -14 -14 -14 -15 -15 -15 -15 -15 -15 -15 -15 -16 -17 -17 -18 -18 -19 -19 -18 -19 -19 -19 -19 -19 -20 -20 -19 -19 -20 -23 -25 -26 -27 -27 -27 -27 -27 -26 -27 -25 -25
-14 -14 -14 -15 -15 -15 -15 -16 -16 -16 -16 -16 -16 -17 -18 -18 -19 -19 -19 -19 -19 -19 -19 -19 -20 -20 -20 -20 -19 -19 -20 -23 -25 -26 -27 -27 -27 -27 -27 -26 -25 -25 -25
-14 -14 -15 -15 -16 -16 -16 -16 -16 -16 -16 -16 -17 -18 -18 -19 -19 -19 -19 -19 -19 -19 -20 -20 -20 -20 -20 -20 -20 -20 -23 -25 -26 -26 -27 -27 -27 -27 -27 -26 -25 -24 -25
-15 -16 -16 -16 -16 -16 -16 -17 -17 -17 -17 -18 -18 -19 -19 -19 -19 -19 -19 -19 -20 -20 -20 -20 -20 -20 -20 -20 -20 -20 -24 -26 -26 -26 -26 -27 -27 -27 -27 -26 -24 -24 -24
-16 -16 -16 -16 -17 -17 -17 -17 -17 -18 -18 -19 -19 -19 -20 -20 -20 -19 -20 -20 -20 -20 -20 -20 -21 -20 -20 -20 -20 -20 -24 -26 -26 -26 -26 -27 -27 -27 -27 -24 -24 -24 -24
-17 -17 -17 -17 -17 -17 -17 -18 -18 -19 -19 -19 -19 -20 -20 -20 -20 -20 -20 -20 -20 -21 -21 -21 -21 -21 -20 -20 -20 -22 -25 -26 -26 -26 -26 -26 -27 -27 -26 -25 -24 -23 -24
-17 -17 -17 -17 -17 -18 -18 -18 -19 -19 -19 -20 -20 -20 -20 -20 -20 -20 -20 -20 -20 -21 -21 -21 -21 -21 -20 -20 -21 -24 -25 -26 -26 -26 -26 -26 -26 -27 -26 -25 -23 -23 -24
-18 -18 -18 -18 -18 -18 -19 -19 -19 -20 -20 -20 -20 -20 -20 -20 -20 -21 -20 -20 -20 -21 -21 -21 -21 -21 -21 -21 -23 -25 -25 -26 -26 -25 -26 -26 -26 -27 -26 -24 -23 -23 -24
-19 -19 -18 -19 -19 -19 -19 -20 -20 -20 -21 -20 -20 -20 -21 -20 -21 -21 -21 -21 -21 -21 -21 -21 -21 -21 -21 -21 -24 -25 -26 -25 -25 -25 -26 -26 -26 -26 -26 -24 -23 -23 -24
-19 -19 -19 -19 -19 -20 -20 -21 -21 -20 -20 -21 -21 -21 -21 -20 -21 -21 -21 -21 -22 -22 -22 -22 -21 -22 -22 -22 -25 -25 -26 -26 -26 -26 -26 -26 -26 -26 -26 -24 -23 -23 -23
-19 -19 -19 -20 -20 -21 -21 -21 -21 -21 -21 -21 -21 -21 -21 -21 -21 -22 -22 -22 -22 -22 -22 -22 -22 -22 -23 -23 -25 -25 -25 -25 -25 -26 -26 -26 -26 -26 -26 -24 -23 -23 -23
-19 -20 -20 -20 -21 -21 -21 -21 -21 -21 -22 -21 -21 -21 -21 -22 -22 -22 -22 -23 -23 -23 -22 -22 -22 -23 -23 -25 -26 -26 -25 -26 -25 -26 -26 -26 -26 -26 -25 -24 -23 -23 -23
-20 -20 -21 -21 -21 -21 -21 -21 -22 -22 -22 -22 -22 -21 -22 -23 -23 -23 -23 -23 -23 -23 -23 -23 -23 -23 -24 -25 -26 -26 -26 -26 -25 -26 -26 -26 -26 -26 -26 -24 -23 -23 -23
-21 -21 -21 -21 -21 -22 -22 -22 -22 -22 -22 -22 -22 -22 -23 -23 -23 -23 -24 -23 -23 -23 -23 -23 -23 -24 -24 -25 -26 -26 -26 -26 -26 -25 -26 -26 -26 -26 -26 -24 -23 -23 -23
-21 -21 -21 -21 -22 -22 -22 -22 -22 -23 -22 -22 -22 -23 -23 -24 -24 -24 -24 -24 -24 -24 -23 -23 -24 -25 -26 -26 -26 -26 -26 -26 -26 -25 -26 -27 -26 -26 -26 -24 -23 -23 -23
-21 -21 -21 -21 -22 -22 -22 -23 -23 -23 -23 -23 -23 -24 -24 -24 -24 -24 -24 -24 -24 -24 -24 -25 -26 -26 -27 -27 -27 -27 -26 -26 -26 -25 -26 -27 -26 -26 -26 -24 -24 -23 -24
-21 -21 -21 -22 -22 -23 -23 -23 -23 -23 -23 -23 -23 -24 -24 -24 -24 -24 -24 -24 -24 -24 -25 -26 -27 -28 -28 -27 -27 -27 -26 -26 -26 -26 -27 -27 -27 -26 -26 -24 -24 -23 -23
-21 -21 -22 -22 -22 -23 -23 -23 -23 -23 -23 -24 -24 -25 -25 -25 -25 -25 -25 -25 -25 -26 -26 -27 -27 -28 -28 -28 -28 -27 -27 -27 -27 -27 -27 -27 -27 -27 -26 -24 -24 -24 -23
-22 -22 -22 -23 -23 -23 -23 -23 -23 -24 -24 -25 -25 -25 -25 -25 -25 -25 -26 -26 -26 -26 -27 -27 -28 -28 -28 -28 -28 -28 -27 -27 -27 -28 -28 -27 -27 -27 -26 -25 -24 -24 -23
-23 -23 -23 -23 -23 -23 -24 -24 -24 -25 -25 -26 -26 -26 -26 -26 -26 -26 -26 -26 -27 -27 -28 -28 -28 -28 -28 -28 -28 -28 -27 -28 -28 -28 -28 -27 -27 -27 -26 -25 -24 -24 -23
-23 -23 -23 -24 -24 -24 -24 -25 -25 -26 -26 -26 -26 -26 -26 -26 -26 -26 -27 -27 -28 -28 -28 -28 -28 -29 -28 -29 -29 -28 -28 -28 -28 -28 -28 -28 -27 -27 -27 -25 -24 -24 -23
-24 -24 -25 -25 -25 -26 -26 -26 -26 -27 -27 -27 -27 -27 -26 -27 -27 -27 -28 -28 -29 -29 -29 -29 -29 -30 -30 -30 -29 -29 -28 -28 -28 -28 -28 -27 -27 -27 -27 -26 -25 -24 -24
-25 -25 -26 -26 -27 -27 -27 -27 -27 -27 -27 -27 -27 -27 -27 -28 -28 -29 -29 -29 -29 -29 -29 -30 -30 -30 -30 -30 -30 -29 -29 -28 -28 -28 -28 -27 -27 -27 -27 -26 -25 -24 -24
Height
5655 5656 5656 5657 5656 5656 5655 5654 5652 5649 5646 5642 5638 5632 5626 5621 5615 5609 5602 5595 5587 5579 5571 5563 5553 5543 5532 5519 5504 5488 5471 5450 5435 5429 5410 5399 5394 5389 5384 5375 5369 5365 5359
5643 5644 5646 5646 5646 5645 5644 5643 5641 5638 5635 5630 5626 5620 5615 5608 5603 5597 5590 5583 5576 5568 5560 5551 5541 5531 5519 5506 5492 5475 5457 5435 5420 5413 5403 5393 5387 5382 5377 5370 5362 5354 5349
5633 5634 5635 5636 5635 5635 5634 5632 5630 5627 5623 5619 5614 5608 5602 5597 5591 5585 5579 5572 5564 5556 5549 5540 5530 5519 5506 5493 5479 5463 5444 5426 5410 5400 5395 5385 5381 5375 5370 5362 5353 5347 5343
5622 5624 5624 5624 5624 5624 5623 5621 5618 5615 5611 5607 5602 5596 5590 5585 5579 5573 5567 5560 5552 5545 5537 5528 5518 5507 5496 5484 5469 5450 5432 5417 5405 5395 5386 5379 5374 5370 5363 5355 5350 5343 5341
5611 5612 5613 5613 5613 5613 5611 5609 5606 5603 5599 5594 5589 5583 5578 5573 5567 5562 5556 5549 5542 5534 5526 5517 5507 5495 5483 5470 5455 5439 5422 5407 5398 5389 5380 5371 5368 5364 5358 5350 5344 5342 5339
5600 5601 5601 5601 5602 5600 5599 5597 5594 5590 5585 5580 5575 5571 5567 5561 5556 5551 5545 5538 5531 5524 5516 5506 5495 5483 5471 5458 5440 5421 5406 5396 5390 5383 5374 5365 5363 5358 5354 5345 5342 5340 5338
5587 5588 5590 5590 5589 5588 5586 5584 5581 5576 5572 5567 5563 5559 5555 5550 5545 5540 5534 5527 5520 5513 5504 5496 5486 5474 5461 5449 5433 5413 5396 5385 5379 5375 5367 5358 5356 5352 5350 5344 5340 5337 5335
5576 5577 5577 5577 5577 5575 5574 5571 5568 5563 5559 5555 5552 5548 5544 5540 5535 5530 5523 5517 5509 5501 5492 5483 5475 5465 5450 5437 5424 5407 5391 5381 5375 5369 5360 5354 5350 5348 5343 5340 5338 5335 5333
5564 5565 5565 5565 5564 5563 5561 5559 5555 5551 5547 5544 5541 5538 5534 5529 5524 5518 5514 5507 5498 5489 5480 5471 5464 5453 5439 5427 5413 5397 5385 5377 5371 5363 5355 5349 5345 5343 5340 5337 5334 5333 5332
5551 5552 5552 5553 5552 5551 5548 5546 5542 5539 5536 5534 5531 5528 5523 5518 5513 5508 5502 5496 5489 5479 5470 5461 5451 5440 5428 5413 5399 5385 5377 5373 5367 5359 5350 5344 5340 5340 5337 5334 5332 5331 5329
5539 5541 5542 5540 5539 5538 5535 5532 5530 5527 5526 5524 5522 5517 5512 5507 5502 5497 5491 5485 5478 5470 5462 5454 5442 5430 5418 5403 5388 5375 5369 5366 5361 5354 5347 5340 5336 5336 5334 5332 5330 5330 5328
5528 5528 5528 5527 5526 5523 5522 5520 5518 5517 5515 5513 5510 5505 5501 5496 5491 5486 5480 5473 5466 5460 5451 5443 5433 5422 5410 5393 5379 5368 5363 5359 5354 5349 5342 5336 5333 5332 5332 5331 5330 5328 5325
5512 5512 5513 5513 5512 5511 5509 5508 5508 5507 5505 5502 5498 5494 5489 5485 5480 5474 5468 5462 5455 5448 5439 5431 5422 5411 5398 5383 5370 5362 5359 5354 5349 5344 5338 5332 5329 5328 5328 5329 5329 5328 5325
5500 5500 5499 5499 5499 5499 5500 5500 5498 5496 5494 5491 5487 5483 5478 5473 5468 5463 5457 5451 5444 5437 5429 5421 5411 5399 5386 5372 5363 5357 5354 5349 5344 5339 5334 5329 5326 5326 5327 5328 5328 5328 5326
5487 5487 5488 5489 5490 5490 5490 5489 5488 5485 5483 5480 5476 5471 5466 5461 5456 5452 5447 5442 5436 5429 5422 5413 5401 5389 5378 5366 5356 5351 5348 5344 5339 5334 5329 5325 5324 5324 5325 5327 5328 5328 5326
5476 5477 5478 5480 5480 5480 5480 5479 5477 5475 5472 5469 5465 5461 5455 5450 5446 5441 5437 5432 5426 5419 5411 5403 5391 5379 5368 5360 5352 5346 5342 5339 5335 5330 5326 5322 5320 5322 5324 5327 5328 5328 5328
5466 5468 5469 5469 5469 5469 5468 5468 5467 5464 5461 5458 5454 5449 5444 5440 5437 5432 5426 5421 5416 5408 5400 5390 5379 5369 5360 5352 5345 5340 5337 5333 5329 5325 5321 5320 5318 5320 5323 5327 5329 5330 5330
5457 5458 5459 5459 5458 5458 5458 5457 5456 5453 5449 5446 5441 5437 5434 5430 5427 5423 5418 5410 5403 5395 5388 5378 5368 5360 5352 5345 5338 5335 5331 5327 5323 5320 5316 5315 5315 5318 5323 5327 5331 5333 5333
5445 5446 5447 5446 5446 5446 5446 5445 5444 5442 5439 5434 5431 5427 5423 5421 5417 5412 5407 5401 5393 5384 5376 5368 5359 5351 5344 5337 5332 5329 5326 5321 5318 5315 5313 5312 5313 5317 5323 5328 5332 5334 5335
5432 5433 5434 5434 5435 5435 5434 5433 5431 5429 5427 5424 5420 5416 5413 5410 5405 5400 5394 5388 5381 5374 5366 5358 5350 5343 5336 5329 5325 5322 5320 5316 5313 5311 5310 5310 5312 5316 5323 5328 5332 5335 5337
5420 5421 5422 5423 5423 5423 5423 5421 5420 5418 5415 5412 5409 5406 5402 5398 5393 5388 5383 5377 5371 5364 5356 5348 5341 5335 5328 5321 5317 5315 5314 5311 5309 5307 5307 5307 5310 5315 5322 5328 5333 5337 5341
5406 5408 5410 5410 5411 5411 5410 5409 5408 5406 5403 5400 5397 5394 5390 5386 5383 5378 5372 5365 5358 5351 5343 5337 5330 5324 5318 5313 5310 5307 5306 5305 5304 5304 5305 5304 5307 5312 5320 5326 5333 5338 5344
5396 5397 5398 5399 5400 5399 5399 5397 5396 5393 5391 5389 5386 5383 5378 5374 5369 5364 5359 5352 5345 5338 5330 5324 5318 5312 5307 5302 5299 5299 5298 5298 5298 5299 5300 5301 5303 5310 5318 5325 5332 5339 5346
5385 5386 5388 5388 5389 5388 5387 5386 5384 5381 5379 5376 5374 5371 5366 5360 5356 5351 5345 5339 5332 5325 5318 5311 5304 5298 5294 5291 5289 5290 5290 5290 5291 5292 5294 5297 5300 5307 5316 5323 5332 5339 5346
5375 5376 5377 5377 5377 5377 5375 5374 5372 5371 5368 5365 5361 5357 5354 5348 5342 5338 5333 5326 5319 5312 5305 5298 5292 5287 5283 5280 5279 5280 5282 5283 5284 5285 5287 5291 5296 5304 5313 5321 5330 5337 5346
5365 5366 5366 5366 5366 5365 5364 5364 5362 5360 5357 5353 5348 5344 5341 5336 5330 5325 5320 5313 5306 5299 5292 5286 5282 5277 5273 5271 5271 5273 5274 5276 5278 5279 5282 5286 5291 5300 5310 5319 5327 5336 5345
Wind_Speed
41 42 42 41 38 41 43 45 44 44 47 51 54 58 60 62 62 63 63 64 65 65 66 66 68 71 72 75 80 85 90 96 90 64 53 45 38 28 37 36 37 38 37
43 43 41 40 40 38 40 39 42 46 49 52 55 59 61 61 62 65 62 63 63 63 64 65 67 69 71 75 80 85 89 89 73 60 51 41 35 37 36 38 43 45 37
43 42 41 40 42 42 40 42 45 48 50 52 55 58 61 63 62 62 61 61 60 61 63 64 66 67 71 75 80 84 89 84 62 56 51 38 33 36 36 43 43 31 20
42 43 43 43 43 45 44 46 48 49 50 53 55 59 61 61 60 59 58 58 58 60 61 63 64 67 70 75 78 83 86 74 54 50 50 36 31 33 38 43 25 17 14
44 45 46 45 45 45 46 49 50 52 55 56 58 59 60 59 55 55 56 56 57 58 60 61 63 66 70 74 77 85 85 67 51 46 46 37 29 32 36 34 18 18 19
46 48 46 46 46 48 48 49 53 55 56 57 59 58 58 53 52 54 54 54 55 57 58 58 61 63 68 72 80 84 75 57 47 45 41 35 27 31 35 27 18 18 18
46 47 47 47 48 48 50 53 55 56 58 59 58 54 51 51 53 52 52 53 55 56 57 57 60 61 69 75 78 82 68 49 47 47 43 32 26 31 32 23 18 23 26
46 46 48 48 49 51 53 55 55 57 59 56 52 49 51 51 52 51 50 52 54 56 56 58 59 62 69 74 78 81 59 42 43 45 42 34 25 28 30 18 21 24 24
48 48 49 50 52 53 55 55 56 57 55 52 48 50 51 51 50 48 49 50 53 54 55 57 59 62 69 75 78 73 48 36 40 43 41 33 25 26 27 20 23 24 24
51 52 53 52 54 54 56 54 50 52 51 46 47 52 51 49 48 47 47 48 51 52 53 56 59 63 70 76 75 63 40 32 37 38 39 33 24 23 24 20 23 25 23
55 53 53 53 53 57 48 45 51 46 44 45 52 51 49 47 46 46 47 49 51 50 53 56 59 64 69 73 68 53 34 31 33 35 36 32 23 21 20 19 22 26 24
53 54 55 55 52 43 45 46 44 43 44 49 51 48 46 45 44 45 47 49 50 50 53 56 59 63 67 69 60 44 30 33 31 33 35 30 21 21 18 17 19 24 27
55 51 48 45 44 44 41 41 39 43 49 48 42 41 41 42 43 44 46 48 49 50 53 56 58 63 64 64 53 36 29 31 33 33 35 27 20 21 17 18 20 22 23
44 43 39 41 40 38 37 39 44 47 45 41 39 40 41 43 43 44 46 47 48 49 52 56 59 61 64 61 51 31 30 31 33 32 34 24 20 20 18 17 18 18 22
33 34 36 36 35 36 39 41 41 42 44 45 43 43 44 43 43 44 46 45 46 48 51 55 58 61 62 55 46 34 30 33 33 29 32 23 18 19 19 16 16 17 23
30 32 30 31 35 38 39 36 38 41 44 44 42 43 43 42 43 45 45 46 47 48 51 55 57 61 60 52 41 32 31 33 29 29 30 21 18 18 18 13 13 17 20
28 35 34 36 39 39 38 36 39 42 44 43 44 43 42 42 43 45 45 47 48 50 52 55 58 60 59 49 38 29 30 30 30 30 26 18 17 19 17 11 10 11 13
32 39 40 40 42 39 38 38 38 38 39 41 42 42 42 42 43 45 46 48 50 52 54 56 57 56 54 46 35 28 30 30 30 29 21 16 16 19 17 10 7 5 8
39 41 41 45 47 42 40 40 39 40 40 40 41 42 42 43 44 45 47 48 51 53 55 55 54 51 49 44 35 29 28 29 29 26 17 15 16 19 17 14 10 6 3
47 46 50 51 42 41 41 41 40 40 42 43 43 42 43 44 46 48 50 51 53 55 55 54 51 47 46 42 35 28 28 27 27 20 15 14 18 22 18 18 14 10 6
55 51 48 45 42 43 42 43 42 43 42 42 42 42 43 45 47 50 52 53 55 56 55 53 51 47 43 39 33 28 27 25 23 16 14 14 20 24 21 22 19 17 11
45 44 43 42 44 42 42 42 43 42 41 41 42 42 44 45 49 51 54 56 57 57 56 55 52 47 42 38 31 27 24 23 20 16 14 15 23 27 25 26 25 23 16
39 39 40 40 40 42 43 42 41 41 41 41 43 44 44 47 50 53 56 57 57 56 55 54 51 49 44 37 30 26 24 23 20 18 17 16 25 31 29 29 32 29 23
40 41 41 41 42 40 42 43 42 41 40 41 44 45 47 48 51 55 55 56 56 56 55 54 52 47 40 33 27 25 23 23 20 19 18 19 28 34 34 32 37 34 31
39 39 40 40 39 40 41 41 40 42 42 43 44 46 49 51 52 55 56 55 55 55 54 51 47 41 34 28 25 23 22 21 17 17 18 22 30 37 39 34 40 39 36
38 39 38 38 38 38 38 39 40 43 44 44 45 47 51 53 51 53 54 54 55 54 50 45 39 35 32 24 22 21 20 19 17 17 19 23 33 40 41 36 40 43 41
Wind_Direction
256 257 258 259 262 273 277 277 278 283 285 287 291 294 296 298 298 300 302 306 308 309 310 313 314 317 318 320 321 323 325 326 326 324 318 305 308 307 308 307 308 306 298
252 254 256 260 266 269 272 276 283 288 290 292 293 295 296 297 297 300 302 306 309 309 311 314 316 318 320 322 323 325 327 326 322 322 321 303 297 300 308 310 308 305 302
250 253 257 259 262 266 272 278 284 289 292 295 296 295 295 295 296 299 303 307 309 310 312 315 318 320 322 323 325 327 328 325 319 322 322 304 295 302 308 312 312 305 291
251 255 256 258 260 266 274 278 284 289 293 296 297 295 292 292 294 301 305 307 308 311 315 318 319 321 323 325 327 330 329 323 315 319 318 306 293 303 309 315 306 292 277
250 253 255 257 262 269 275 279 286 290 292 295 296 293 291 293 299 303 306 307 309 313 316 318 320 323 325 326 330 331 328 322 316 318 317 305 293 304 311 311 280 266 271
249 252 254 259 264 271 276 283 287 290 295 297 295 291 291 298 301 304 304 306 310 314 317 319 322 325 325 328 332 330 326 318 313 318 320 303 290 301 314 305 279 262 269
246 250 255 261 268 274 280 285 289 294 297 296 293 291 297 301 302 303 305 308 312 315 317 319 322 324 323 328 332 330 325 313 314 318 324 308 286 296 311 305 279 264 272
250 254 259 265 271 276 282 287 293 295 292 291 289 292 299 301 302 303 307 310 313 316 317 320 323 322 325 330 332 329 320 304 309 316 321 313 283 293 314 293 263 272 278
255 259 264 269 275 280 285 290 292 283 285 288 288 292 298 302 302 304 306 312 315 315 317 320 321 324 329 331 330 325 317 302 310 313 319 314 282 290 310 297 277 272 279
257 261 266 273 278 282 286 288 274 277 283 282 284 296 300 300 301 303 308 313 312 315 317 318 322 328 330 331 329 323 314 303 309 314 316 314 283 284 303 304 276 279 283
258 264 271 275 278 283 280 269 272 275 277 280 292 297 298 298 300 304 309 311 314 315 316 318 323 328 329 330 328 321 310 306 308 313 314 311 286 281 302 297 281 280 288
267 270 270 274 277 271 268 267 268 274 276 285 293 295 295 298 302 304 307 311 313 315 317 320 325 327 328 329 329 320 303 307 313 314 316 308 282 273 293 289 287 283 292
264 266 269 269 267 268 259 263 269 274 281 288 290 297 301 301 301 304 308 310 312 316 320 323 325 327 327 330 328 314 302 312 315 309 318 304 278 264 283 282 281 285 297
262 263 259 257 256 252 256 263 270 278 283 283 296 305 305 303 302 304 307 310 313 317 319 321 322 326 329 330 328 311 302 312 317 309 316 301 273 256 271 277 281 290 298
253 244 245 246 247 254 264 274 282 285 282 288 296 302 305 301 300 304 306 307 311 314 317 320 324 327 331 329 323 309 304 312 312 308 316 301 268 248 260 270 276 292 296
242 237 243 253 259 265 270 278 285 287 291 295 299 302 301 299 301 303 303 306 309 312 317 321 325 328 331 328 320 305 302 309 309 311 314 299 265 241 252 259 272 288 303
243 243 247 261 266 269 270 279 286 288 292 295 298 299 297 297 298 301 301 304 308 313 316 322 327 329 330 326 316 300 300 305 308 314 308 291 254 233 242 244 258 287 312
244 244 258 263 264 265 277 285 287 291 294 295 295 296 296 296 298 298 300 304 308 313 317 324 326 325 326 323 314 297 301 305 310 314 301 282 244 225 230 213 220 256 324
247 254 257 258 258 266 277 281 282 289 296 296 294 293 294 296 296 297 298 303 308 314 318 321 323 323 321 319 313 297 300 305 310 310 287 272 234 217 218 199 187 192 70
251 256 249 247 256 268 275 278 284 292 297 299 295 294 294 296 299 300 303 307 310 312 315 319 321 320 316 315 311 297 299 304 312 300 274 258 223 209 206 186 178 169 116
245 250 254 251 257 272 274 278 279 288 290 291 290 292 294 296 296 300 304 306 309 310 313 316 317 317 313 310 306 295 296 299 308 284 268 248 214 201 199 182 175 162 138
246 250 252 255 261 269 273 275 280 283 284 286 287 289 290 293 297 301 304 305 308 310 313 315 316 314 312 306 298 289 290 292 296 274 261 242 211 196 195 181 172 161 155
247 251 255 259 265 268 271 275 277 278 280 283 285 286 289 295 299 302 304 305 307 310 312 313 312 311 310 301 292 280 280 285 285 267 251 237 209 195 191 184 171 164 156
252 254 256 261 265 267 271 272 273 276 278 282 284 288 294 298 301 303 303 305 307 310 311 311 312 311 307 294 280 271 272 279 278 259 245 227 204 194 189 185 173 168 158
255 257 261 263 264 267 270 272 275 278 281 285 289 294 297 300 302 302 304 306 308 309 310 312 312 309 305 290 268 260 264 271 266 254 237 215 200 192 187 186 177 171 164
258 263 262 262 264 268 272 276 280 284 288 290 294 296 298 300 302 303 304 307 308 309 311 311 307 305 305 287 258 252 257 259 255 247 228 211 198 190 187 185 181 174 169